Regional Weather Roundup
Issued by NWS

Home | Current Version | Previous Version | Graphics & Text | Print | Product List | Glossary On
Versions: 1 2 3 4 5 6 7 8 9 10 11 12 13 14 15 16 17 18 19 20 21 22 23 24 25 26 27 28 29 30 31 32 33 34 35 36 37 38 39 40 41 42 43 44 45 46 47 48 49 50
000
ASUS45 KTFX 271810
RWRMT
MONTANA REGIONAL WEATHER ROUNDUP
NATIONAL WEATHER SERVICE GREAT FALLS MT
1200 PM MDT MON JUL 27 2015

NOTE: "FAIR" INDICATES FEW OR NO CLOUDS BELOW 12000 FEET WITH NO
SIGNIFICANT WEATHER AND/OR OBSTRUCTIONS TO VISIBILITY.

MTZ001>007-043-271900-
WEST OF THE DIVIDE

CITY           SKY/WX    TMP DP  RH WIND       PRES   REMARKS
KALISPELL      LGT RAIN  59  43  55 CALM      29.97S
MISSOULA       CLOUDY    56  48  74 CALM      30.01S
BUTTE          CLOUDY    47  43  86 W8        30.02R
MULLAN PASS    CLOUDY    45  38  76 VRB7      30.08R
DEER LODGE       N/A     50  45  81 NW9       30.03S
EUREKA           N/A     64  43  45 S3        29.98F
HAMILTON         N/A     54  48  82 SW5       30.02S
LIBBY            N/A     59  45  58 CALM      30.01S
PLAINS           N/A     65  41  41 W6        29.99F
RONAN            N/A     59  50  72 SE3       30.04S
$$

MTZ008-052>055-271900-
SOUTHWEST MONTANA

CITY           SKY/WX    TMP DP  RH WIND       PRES   REMARKS
BOZEMAN        LGT RAIN  51  48  89 W18       29.95R
DILLON         LGT RAIN  49  46  90 SW10      30.00R
W YELLOWSTONE  CLOUDY    57  45  62 W16G36    29.97R
TWIN BRIDGES     N/A     50  44  79 CALM      29.97F
$$

MTZ009-010-012-014-046-048-049-054-271900-
EAST SLOPES AND CENTRAL MONTANA

CITY           SKY/WX    TMP DP  RH WIND       PRES   REMARKS
CUT BANK       CLOUDY    58  45  62 N10       29.96R
GREAT FALLS    RAIN      53  51  93 NW8       29.96R FOG
MALMSTROM AFB  RAIN      53  51  95 W13       29.96R
HELENA         LGT RAIN  54  50  86 W6        29.96F FOG
CONRAD           N/A     53  53 100 W3        29.99R
$$

MTZ011-013-016-021-045-047-050-051-271900-
NORTH CENTRAL MONTANA

CITY           SKY/WX    TMP DP  RH WIND       PRES   REMARKS
HAVRE          LGT RAIN  55  54  96 NW17      29.86F FOG
LEWISTOWN      CLOUDY    59  54  83 NW13      29.87F
CHINOOK          N/A     63  59  88 SW15      29.85S
FORT BENTON      N/A     55  54  94 SW8       29.92R
$$

MTZ017>020-022>027-061-062-271900-
NORTHEAST MONTANA

CITY           SKY/WX    TMP DP  RH WIND       PRES   REMARKS
GLASGOW        MOSUNNY   78  58  49 NE17G26   29.72F
JORDAN           N/A     72  57  59 N14       29.75F
SIDNEY         SUNNY    N/A N/A N/A E9        29.66F
WOLF POINT     MOSUNNY   84  58  40 E9        29.69F
PLENTYWOOD       N/A     79  61  53 NE12G21   29.74F
POPLAR           N/A     82  57  42 NE7       29.70F
SCOBEY           N/A     69  57  65 N18       29.77F
$$

MTZ028>42-056>058-271900-
SOUTHCENTRAL AND SOUTHEAST MONTANA

CITY           SKY/WX    TMP DP  RH WIND       PRES   REMARKS
BAKER          MOSUNNY   82  58  43 SE6       29.72F
BILLINGS       PTSUNNY   71  53  52 VRB3      29.82S
LIVINGSTON     CLOUDY    67  52  58 W12       29.84R
MILES CITY     MOSUNNY   83  60  45 VRB5      29.68F
EKALAKA          N/A     79  55  43 CALM      29.76R
FORSYTH          N/A     81  59  47 N9        29.69F
LAUREL           N/A     69  54  58 NE6       29.82S
ROUNDUP          N/A     73  53  49 N10       29.73F
$$

REGIONAL REPORTS...DAKOTAS

CITY           SKY/WX    TMP DP  RH WIND       PRES   REMARKS
WILLISTON      SUNNY     87  56  34 SE16G22   29.71F
MINOT          MOSUNNY   85  66  53 E14       29.76S
DICKINSON      SUNNY     82  65  56 SE14      29.71F
BEACH          FAIR      84  59  42 SE14      29.71F
CROSBY         FAIR      79  64  61 E15       29.74F
BISMARCK       SUNNY     86  69  56 SE16      29.75F HX  90
GRAND FORKS    PTSUNNY   85  71  63 SE12      29.85S HX  90
FARGO          PTSUNNY   85  69  58 S14       29.84F
BUFFALO SD       N/A     82  60  47 S13       29.68S
RAPID CITY     SUNNY     85  64  49 S17       29.75F
$$

REGIONAL REPORTS...WYOMING/IDAHO/WASHINGTON

CITY           SKY/WX    TMP DP  RH WIND       PRES   REMARKS
GILLETTE       PTSUNNY   84  49  29 N7        29.77F
SHERIDAN       SUNNY     74  52  46 NW12      29.80S
BUFFALO WY     SUNNY     75  50  41 N10       29.84S
CODY           MOSUNNY   66  54  63 N12G18    29.83F
YELLOWSTONE LA   N/A     63  39  41 W8G17     30.02R
IDAHO FALLS    RAIN      53  49  86 S9        30.04R FOG
SALMON         CLOUDY    52  52 100 NW5       29.99R
BOISE          SUNNY     67  40  37 NW16      30.05R
SPOKANE        PTSUNNY   66  39  37 VRB7      30.03S
$$

REGIONAL REPORTS...ALBERTA

CITY           SKY/WX    TMP DP  RH WIND       PRES   REMARKS
EDMONTON       PTSUNNY   66  48  52 W7        29.94F
CALGARY        CLOUDY    61  43  51 N13       29.99S
LETHBRIDGE     CLOUDY    61  48  63 NW8       29.95F
MEDICINE HAT   CLOUDY    63  52  67 W8        29.90R
WATERTON GATE    N/A     55  45  67 NE6         N/A
MILK RIVER       N/A     57  46  67 N10         N/A
ONEFOUR          N/A     54  52  94 NW20        N/A
$$

REGIONAL REPORTS...SASKATCHEWAN

CITY           SKY/WX    TMP DP  RH WIND       PRES   REMARKS
SWIFT CURRENT  PTSUNNY   63  59  88 E10       29.85F
REGINA         TSTM      59  57  94 NE13      29.92F FOG
SASKATOON      LGT RAIN  66  59  77 N8        29.90S
CYPRESS HILLS    N/A     54  50  87 NW5         N/A
VAL MARIE        N/A     72  57  60 NE20        N/A
ROCKGLEN         N/A     64  59  82 N13G22      N/A
ASSINIBOIA       N/A     63  54  72 W9          N/A
$$


USA.gov is the U.S. government's official web portal to all federal, state and local government web resources and services.